User: anonymous   Login
Location: Unspecified
(0.0000°N, 0.0000°E)
Time: 18:16:23
(UTC+00:00)
Language:

Explorer 7 - Orbit

View from above orbital plane
View from above orbital plane
View from above satellite
View from above satellite

Ground track
Ground track

The orbit data is extracted from the following two-line orbital elements,

1    22U 59009A   18140.89919328 -.00000032 +00000-0 +20843-4 0  9997
2    22 050.2859 059.6218 0140944 241.8984 116.7656 14.94551827356905
Epoch (UTC): 20 May 2018 21:34:50
Eccentricity: 0.0140944
inclination: 50.2859°
perigee height: 485 km
apogee height: 682 km
right ascension of ascending node: 59.6218°
argument of perigee: 241.8984°
revolutions per day: 14.94551827
mean anomaly at epoch: 116.7656°
orbit number at epoch: 35690

The dashed part of the orbit path shows where the satellite is in the earth's shadow,  

DLR